Detroit Lakes, MN

11:52 AM CDT on August 27, 2016 (GMT -0500)
Detroit Lakes

Weather History for KDTL - March, 2013

Change the Weather History Date:

Friday, March 22, 2013

  Actual Average Record
Temperature  
Mean Temperature 12 °F -  
Max Temperature 28 °F 38 °F 67 °F (1938)
Min Temperature -4 °F 20 °F -19 °F (1955)
Degree Days  
Heating Degree Days 53    
Moisture  
Dew Point 7 °F    
Average Humidity 79    
Maximum Humidity 93    
Minimum Humidity 51    
Precipitation  
Precipitation 0.00 in - - ()
Sea Level Pressure  
Sea Level Pressure 30.06 in    
Wind  
Wind Speed 2 mph (NNW)    
Max Wind Speed 10 mph    
Max Gust Speed -    
Visibility 10 miles    
Events      
Averages and records for this station are not official NWS values.
T = Trace of Precipitation, MM = Missing Value Source: NWS Daily Summary

Daily Weather History Graph

Daily Weather History Graph

Search for Another Location

Airport or City:

Trip Planner

Search our weather history database for the weather conditions in past years. The results will help you decide how hot, cold, wet, or windy it might be!

Date:

Astronomy

Mar. 22, 2013 Rise Set
Actual Time 7:21 AM CDT 7:39 PM CDT
Civil Twilight 6:51 AM CDT 8:09 PM CDT
Nautical Twilight 6:16 AM CDT 8:45 PM CDT
Astronomical Twilight 5:39 AM CDT 9:22 PM CDT
Moon 2:52 PM CDT (3/22) 4:38 AM CDT (3/22)
Length of Visible Light 13h 18m
Length of Day
12h 17m
Waxing Gibbous, 77% of the Moon is Illuminated
Mar 22
Waxing Gibbous
Mar 27
Full
Apr 2
Last Quarter
Apr 10
New
Apr 18
First Quarter

Hourly Weather History & Observations

Time (CDT) Temp. Windchill Dew Point Humidity Pressure Visibility Wind Dir Wind Speed Gust Speed Precip Events Conditions
12:16 AM 5.0 °F - 3.2 °F 92% 30.08 in 10.0 mi Calm Calm - N/A   Clear
12:35 AM 5.0 °F - 3.2 °F 92% 30.08 in 10.0 mi Calm Calm - N/A   Clear
12:55 AM 3.2 °F -4.2 °F 1.4 °F 92% 30.08 in 10.0 mi North 3.5 mph - N/A   Clear
1:15 AM 3.2 °F - 1.4 °F 92% 30.08 in 10.0 mi Calm Calm - N/A   Clear
1:35 AM 3.2 °F - 1.4 °F 92% 30.08 in 7.0 mi Calm Calm - N/A   Clear
1:56 AM 3.2 °F - 1.4 °F 92% 30.08 in 10.0 mi Calm Calm - N/A   Clear
2:15 AM 3.2 °F - -0.4 °F 85% 30.07 in 10.0 mi Calm Calm - N/A   Clear
2:36 AM 1.4 °F - -0.4 °F 92% 30.07 in 10.0 mi Calm Calm - N/A   Clear
2:55 AM 3.2 °F - -0.4 °F 85% 30.07 in 10.0 mi Calm Calm - N/A   Clear
3:16 AM 1.4 °F - -0.4 °F 92% 30.06 in 10.0 mi Calm Calm - N/A   Clear
3:36 AM -0.4 °F - -4.0 °F 85% 30.06 in 10.0 mi Calm Calm - N/A   Clear
3:55 AM -0.4 °F - -4.0 °F 85% 30.06 in 10.0 mi Calm Calm - N/A   Clear
4:16 AM 1.4 °F - -0.4 °F 92% 30.05 in 10.0 mi Calm Calm - N/A   Clear
4:36 AM -0.4 °F - -4.0 °F 85% 30.05 in 10.0 mi Calm Calm - N/A   Clear
4:55 AM -0.4 °F - -4.0 °F 85% 30.05 in 10.0 mi Calm Calm - N/A   Clear
5:16 AM -0.4 °F - -4.0 °F 85% 30.05 in 10.0 mi Calm Calm - N/A   Clear
5:36 AM -4.0 °F - -5.8 °F 92% 30.05 in 10.0 mi Calm Calm - N/A   Clear
5:55 AM -2.2 °F - -5.8 °F 85% 30.05 in 10.0 mi Calm Calm - N/A   Clear
6:16 AM -4.0 °F - -5.8 °F 92% 30.06 in 10.0 mi Calm Calm - N/A   Clear
6:36 AM -4.0 °F - -5.8 °F 92% 30.06 in 10.0 mi Calm Calm - N/A   Clear
6:55 AM -4.0 °F - -5.8 °F 92% 30.06 in 10.0 mi Calm Calm - N/A   Clear
7:16 AM -2.2 °F - -5.8 °F 85% 30.06 in 10.0 mi Calm Calm - N/A   Clear
7:36 AM -0.4 °F - -4.0 °F 85% 30.06 in 10.0 mi Calm Calm - N/A   Clear
7:55 AM 1.4 °F - -2.2 °F 85% 30.06 in 10.0 mi Calm Calm - N/A   Clear
8:16 AM 1.4 °F - -2.2 °F 85% 30.06 in 10.0 mi Calm Calm - N/A   Clear
8:36 AM -2.2 °F - -5.8 °F 85% 30.06 in 10.0 mi Calm Calm - N/A   Clear
8:55 AM 1.4 °F - -0.4 °F 92% 30.06 in 10.0 mi Calm Calm - N/A   Clear
9:16 AM 5.0 °F - 1.4 °F 85% 30.05 in 10.0 mi Calm Calm - N/A   Clear
9:36 AM 5.0 °F - 3.2 °F 92% 30.05 in 10.0 mi Calm Calm - N/A   Clear
9:55 AM 8.6 °F - 5.0 °F 85% 30.05 in 10.0 mi Calm Calm - N/A   Clear
10:16 AM 12.2 °F - 8.6 °F 85% 30.04 in 10.0 mi Calm Calm - N/A   Clear
10:36 AM 14.0 °F - 8.6 °F 79% 30.04 in 10.0 mi Calm Calm - N/A   Clear
10:55 AM 19.4 °F - 10.4 °F 68% 30.03 in 10.0 mi Calm Calm - N/A   Clear
11:16 AM 21.2 °F - 10.4 °F 63% 30.03 in 10.0 mi Calm Calm - N/A   Clear
11:36 AM 23.0 °F - 12.2 °F 63% 30.03 in 10.0 mi Calm Calm - N/A   Clear
11:55 AM 24.8 °F - 12.2 °F 59% 30.04 in 10.0 mi Calm Calm - N/A   Clear
12:16 PM 26.6 °F - 12.2 °F 55% 30.04 in 10.0 mi Calm Calm - N/A   Clear
12:36 PM 28.4 °F - 12.2 °F 51% 30.03 in 10.0 mi Calm Calm - N/A   Clear
12:55 PM 28.4 °F - 12.2 °F 51% 30.03 in 10.0 mi Calm Calm - N/A   Clear
1:16 PM 28.4 °F 24.6 °F 14.0 °F 55% 30.03 in 10.0 mi WNW 3.5 mph - N/A   Clear
1:35 PM 26.6 °F 20.0 °F 15.8 °F 64% 30.04 in 10.0 mi NW 5.8 mph - N/A   Clear
1:55 PM 26.6 °F 19.1 °F 14.0 °F 59% 30.04 in 10.0 mi NNW 6.9 mph - N/A   Clear
2:16 PM 26.6 °F 18.2 °F 15.8 °F 64% 30.05 in 10.0 mi NW 8.1 mph - N/A   Clear
2:35 PM 26.6 °F 18.2 °F 14.0 °F 59% 30.04 in 10.0 mi NNW 8.1 mph - N/A   Clear
2:55 PM 26.6 °F 19.1 °F 15.8 °F 64% 30.03 in 10.0 mi NNW 6.9 mph - N/A   Clear
3:16 PM 26.6 °F 18.2 °F 15.8 °F 64% 30.03 in 10.0 mi NW 8.1 mph - N/A   Clear
3:35 PM 26.6 °F 17.5 °F 15.8 °F 64% 30.04 in 10.0 mi NNW 9.2 mph - N/A   Clear
3:55 PM 26.6 °F 16.8 °F 15.8 °F 64% 30.04 in 10.0 mi NNW 10.4 mph - N/A   Clear
4:16 PM 24.8 °F 14.6 °F 14.0 °F 64% 30.04 in 10.0 mi NNW 10.4 mph - N/A   Clear
4:35 PM 24.8 °F 15.3 °F 14.0 °F 64% 30.04 in 10.0 mi NNW 9.2 mph - N/A   Clear
4:55 PM 24.8 °F 15.3 °F 17.6 °F 74% 30.04 in 10.0 mi NNW 9.2 mph - N/A   Clear
5:16 PM 23.0 °F 15.8 °F 17.6 °F 80% 30.05 in 10.0 mi NW 5.8 mph - N/A   Clear
5:35 PM 23.0 °F 13.9 °F 17.6 °F 80% 30.05 in 10.0 mi NNW 8.1 mph - N/A   Clear
5:55 PM 23.0 °F 14.7 °F 15.8 °F 74% 30.05 in 10.0 mi NNW 6.9 mph - N/A   Clear
6:16 PM 21.2 °F 13.6 °F 15.8 °F 80% 30.05 in 10.0 mi NW 5.8 mph - N/A   Clear
6:35 PM 21.2 °F 11.7 °F 15.8 °F 80% 30.06 in 10.0 mi NW 8.1 mph - N/A   Clear
6:55 PM 19.4 °F 11.5 °F 14.0 °F 80% 30.06 in 10.0 mi NNW 5.8 mph - N/A   Clear
7:16 PM 19.4 °F 9.5 °F 14.0 °F 80% 30.07 in 10.0 mi NW 8.1 mph - N/A   Clear
7:35 PM 19.4 °F 10.4 °F 14.0 °F 80% 30.07 in 10.0 mi NW 6.9 mph - N/A   Clear
7:55 PM 17.6 °F 9.3 °F 12.2 °F 79% 30.07 in 10.0 mi NW 5.8 mph - N/A   Clear
8:16 PM 17.6 °F 10.7 °F 12.2 °F 79% 30.08 in 10.0 mi NNW 4.6 mph - N/A   Clear
8:35 PM 17.6 °F 10.7 °F 12.2 °F 79% 30.08 in 10.0 mi NNW 4.6 mph - N/A   Clear
8:55 PM 17.6 °F - 12.2 °F 79% 30.08 in 10.0 mi Calm Calm - N/A   Clear
9:16 PM 15.8 °F 10.2 °F 12.2 °F 86% 30.09 in 10.0 mi North 3.5 mph - N/A   Clear
9:35 PM 15.8 °F 8.6 °F 12.2 °F 86% 30.09 in 10.0 mi WNW 4.6 mph - N/A   Clear
9:55 PM 15.8 °F 7.2 °F 12.2 °F 86% 30.10 in 10.0 mi NNW 5.8 mph - N/A   Clear
10:16 PM 14.0 °F 6.5 °F 10.4 °F 86% 30.10 in 10.0 mi NNW 4.6 mph - N/A   Clear
10:35 PM 14.0 °F 6.5 °F 10.4 °F 86% 30.10 in 10.0 mi NNW 4.6 mph - N/A   Clear
10:55 PM 14.0 °F 8.2 °F 12.2 °F 93% 30.10 in 10.0 mi NNW 3.5 mph - N/A   Clear
11:35 PM 14.0 °F 8.2 °F 12.2 °F 93% 30.10 in 10.0 mi NW 3.5 mph - N/A   Clear
11:55 PM 14.0 °F 6.5 °F 10.4 °F 86% 30.09 in 10.0 mi NNW 4.6 mph - N/A   Clear